Regional Weather Roundup
Issued by NWS

Home | Current Version | Previous Version | Graphics & Text | Print | Product List | Glossary On
Versions: 1 2 3 4 5 6 7 8 9 10 11 12 13 14 15 16 17 18 19 20 21 22 23 24 25 26 27 28 29 30 31 32 33 34 35 36 37 38 39 40 41 42 43 44 45 46 47 48 49 50
000
ASUS43 KFSD 061002
RWRSD

WEATHER ROUNDUP FOR SOUTH DAKOTA
NATIONAL WEATHER SERVICE SIOUX FALLS SD
500 AM CDT FRI MAY 06 2016

NOTE: "FAIR" INDICATES FEW OR NO CLOUDS BELOW 12,000 FEET WITH NO
SIGNIFICANT WEATHER AND/OR OBSTRUCTIONS TO VISIBILITY.


SDZ001>005-009-010-012>017-061100-
NORTHWEST AND NORTH CENTRAL SOUTH DAKOTA

CITY           SKY/WX    TMP DP  RH WIND       PRES   REMARKS
BUFFALO          N/A     55  44  66 NW5       29.80R
FAITH            N/A     61  40  45 S8        29.82F
MOBRIDGE       CLOUDY    52  48  86 E3        29.77S
$$

SDZ012>016-024>037-041>051-057-063-072>074-061100-
SOUTHWEST AND SOUTH CENTRAL SOUTH DAKOTA

CITY           SKY/WX    TMP DP  RH WIND       PRES   REMARKS
RAPID CTY ARPT PTCLDY    51  41  68 CALM      29.85F
PIERRE         CLOUDY    60  49  66 SW9       29.80S
CUSTER         CLOUDY    48  33  56 NW7       30.00F
ELLSWORTH AFB  PTCLDY    58  40  49 SW8       29.84F
PHILIP         CLEAR     54  47  77 CALM      29.82F
PINE RIDGE     PTCLDY    57  45  64 CALM      29.91S
WINNER         LGT RAIN  66  48  52 S22G30    29.85F
$$

SDZ004>011-016>023-039-040-061100-
NORTHEAST SOUTH DAKOTA

CITY           SKY/WX    TMP DP  RH WIND       PRES   REMARKS
ABERDEEN       CLEAR     56  46  69 S9        29.79S
WATERTOWN      CLOUDY    56  44  64 S9        29.84F
BROOKINGS      PTCLDY    53  44  71 SE10      29.88F
SISSETON         N/A     69  45  41 SW22G30   29.77F
$$

SDZ017-020-022-023-036>040-048>070-061100-
SOUTHEAST SOUTH DAKOTA

CITY           SKY/WX    TMP DP  RH WIND       PRES   REMARKS
SIOUX FALLS    CLEAR     57  44  62 S9        29.91S
HURON          PTCLDY    62  49  62 S15       29.81F
MITCHELL       MOCLDY    64  49  57 S9        29.85F
YANKTON        CLEAR     64  43  45 SW12      29.91S
$$

ABBREVIATIONS USED IN REMARKS
   TC - TEMPERATURE IN CELSIUS
  WCI - WIND CHILL INDEX
   HX - HEAT INDEX
  VSB - VISIBILITY





USA.gov is the U.S. government's official web portal to all federal, state and local government web resources and services.